{"data":{"norad_id":62450,"epoch":"2026-09-21T20:44:13.522560Z","epoch_age_seconds":56651,"freshness":"FRESH","line1":"1 62450U 24251U   26264.86404540  .00027858  00000+0  83249-3 0  9990","line2":"2 62450  53.1590 141.2479 0001410 106.5321 253.5837 15.34403266 97658","mean_motion":15.34403266,"eccentricity":0.000141,"inclination_deg":53.159,"raan_deg":141.2479,"arg_perigee_deg":106.5321,"mean_anomaly_deg":253.5837,"bstar":0.00083249,"rev_number":9765,"period_min":93.847558324996,"perigee_km":461.72897587889,"apogee_km":463.65809008919,"semimajor_km":6840.830532984,"source":"CELESTRAK","updated_at":"2026-09-22T09:00:49.583410Z"}}